Back to catalog

COSMOS 2042

AliveMilitaryPO
NORAD 20236·PAYLOAD·🇷🇺 Russia

Launched Sep 14, 1989 from Plesetsk Cosmodrome

Loading…

Next Passes (next 24 hours)

TLE

FreshSource: Space-Track

Epoch: Sep 14, 2026, 11:51 UTC

1 20236U 89074E   26257.49400484  .00000032  00000-0  11912-3 0  9998
2 20236  82.5862 161.2145 0004252 300.7074 233.2702 12.64232508822958

Track COSMOS 2042 in real time with AllMySat

Download on the App Store